Starlink 32328

operational
NORAD ID: 62489 Int'l Des: 2025-003 Owner: SPXS Country: US Constellation: starlink
LEOCIRCULAR

Über Starlink 32328

Beschreibung wird geladen...

Live-Position

3D-Globus wird geladen...

Nächste Überflüge

Höhenverlauf

Altitude vs Time

uPlot chart will show altitude changes over time

Zweizeiliger Elementsatz

1 62489U 25003C 26034.26498548 .00037465 00000-0 13633-2 0 9993
2 62489 42.9986 123.6478 0000860 256.9525 103.1231 15.27599236 61409
Epoch: 3. Feb. 2026 • Age: 7 hours

Aktueller Status

Höhe 486.5 km
Geschwindigkeit 7.63 km/s
Subsatellitenpunkt 42.39°N, 104.54°W
Startdatum 6. Jan. 2025
Alter 1 years
Typ internet

Technische Details

Klassifizierung Payload
Masse 730.00 kg
Trockenmasse 700.00 kg
Gesamtmasse 730.00 kg
Länge 0.30 m
Durchmesser 4.10 m
Spannweite 29.00 m
Form Box + pan
Hersteller SPXS
Bus-Typ Starlink V2M
Phasenstatus In Orbit
Besitzer/Staat SPXS/US

Große Konstellationen

Loading constellations...